Current weather by "City, St" or "zip code"  
 
Advertise Here

Current Conditions: Jennings Airport, LA

Overcast


75.0 F

Last Updated on Sep 16 2021, 9:55 pm CDT
Humidity: 100%
Wind Speed: N 0.0 mph
Barometer 29.86 in
Dewpoint: 75.2 F
Visibility: 10.00 mi
Precip: --
Heat Index: NA
Wind Chill: NA
Current conditions at:

Jennings Airport, LA (K3R7)

Lat: 30.2427 Lon: 92.6735

Local Radar Image active severe weather and emergency alerts image image weather storm and storm spotter reports image weather observation monitoring service image
Local
Radar
Active
Alerts
Storm Reports Obs
Monitoring

Sign-up For Email & Text Message Weather Alert Notification Services



Advertise Here

Observation History for Jennings Airport, LA


Time Wind
(mph)
Vis
(mi)
Weather Precip (in) Temperature (F) Relative
Humidity
Wind
Chill
(F)
Heat
Index
(F)
Pressure
Air Dwpt altimeter
(in)
sea level
(mb)
Rmks
9:55 pm CDT N 0.0 10.00 Overcast -- 75.0 75.2 100% NA NA 29.86 M
8:55 pm CDT N 0.0 10.00 Overcast -- 76.0 76.1 100% NA NA 29.84 M
7:55 pm CDT NW 3.5 10.00 Overcast -- 77.0 77.4 100% NA NA 29.82 M
6:55 pm CDT W 4.6 10.00 Overcast -- 77.0 77.4 100% NA NA 29.81 M
5:55 pm CDT N 5.8 10.00 Overcast 00.01 78.0 77.5 100% NA NA 29.81 M
4:55 pm CDT NW 3.5 7.00 Light Drizzle 00.03 79.0 78.8 100% NA NA 29.79 M
3:55 pm CDT NE 6.9 10.00 Overcast -- 80.0 79.9 100% NA 87 29.79 M
2:55 pm CDT N 8.1 10.00 Mostly Cloudy -- 81.0 81.0 100% NA 91 29.79 M
1:55 pm CDT NE 9.2 10.00 Overcast -- 81.0 80.8 99% NA 91 29.82 M
11:55 am CDT NE 5.8 10.00 Overcast -- 79.0 79.3 100% NA NA 29.84 M
10:55 am CDT NE 4.6 5.00 Fog/Mist -- 75.0 75.2 100% NA NA 29.85 M
9:55 am CDT 7.00 Overcast -- 75.0 74.8 100% NA NA 29.84 M
8:55 am CDT NE 5.8 10.00 Overcast -- 74.0 74.1 100% NA NA 29.83 M
7:55 am CDT NE 5.8 10.00 Overcast -- 73.0 73.4 100% NA NA 29.81 M
6:55 am CDT 7.00 Overcast -- 73.0 73.4 100% NA NA 29.79 M
6:35 am CDT NE 8.1 10.00 Overcast -- 74.0 73.6 100% NA NA 29.79 M
5:55 am CDT 10.00 Overcast -- 74.0 73.6 100% NA NA 29.79 M
5:35 am CDT 10.00 Overcast -- 74.0 73.6 100% NA NA 29.78 M
4:55 am CDT 10.00 Overcast -- 73.0 73.4 100% NA NA 29.77 M
4:35 am CDT NE 8.1 10.00 Overcast -- 73.0 73.4 100% NA NA 29.77 M
3:55 am CDT NE 5.8 10.00 Overcast -- 73.0 73.4 100% NA NA 29.77 M
2:55 am CDT N 4.6 10.00 Overcast -- 73.0 73.4 100% NA NA 29.78 M
1:55 am CDT 10.00 Overcast -- 73.0 73.4 100% NA NA 29.79 M
12:55 am CDT N 0.0 10.00 Overcast -- 73.0 73.4 100% NA NA 29.80 M

Regional Weather Observation


Oakdale, Allen Parish Airport, LA (KACP)

Thunderstorm in Vicinity
77.0 F

Chenault Airpark, LA (KCWF)

Overcast
75.0 F

Lake Charles Regional Airport, LA (KLCH)

Overcast
76.0 F

Southland Field, LA (KUXL)

Overcast
76.0 F

De Ridder, Beauregard Parish Airport, LA (KDRI)

NULL
85.0 F

De Quincy Industrial Airpark, LA (K5R8)

Overcast
74.0 F
Advertise Here


Advertise Here